Regional Weather Roundup
Issued by NWS Portland, ME

Home | Current Version | Previous Version | Text Only | Print | Product List | Glossary On
Versions: 1 2 3 4 5 6 7 8 9 10 11 12 13 14 15 16 17 18 19 20 21 22 23 24 25 26 27 28 29 30 31 32 33 34 35 36 37 38 39 40 41 42 43 44 45 46 47 48 49 50
000
ASUS41 KGYX 212105
RWRGYX
WEATHER ROUNDUP FOR MAINE AND NEW HAMPSHIRE
NATIONAL WEATHER SERVICE GRAY ME
400 PM EST SUN JAN 21 2018

MEZ002-005-006-010-012-015-018-020-021-024-026-027-029-212200-
MAINE

CITY           SKY/WX    TMP DP  RH WIND       PRES   REMARKS
PORTLAND       MOCLDY    42  29  59 NE3       30.12R
SANFORD        FAIR      43  26  51 NW5       30.12R
BAR HARBOR     FAIR      40  20  44 NW3       30.10R
WISCASSET      FAIR      42  25  50 CALM      30.12R
ROCKLAND       FAIR      41  24  51 NW7       30.11R
FRYEBURG       FAIR      41  25  53 W9        30.10R
LEWISTONAUBURN FAIR      41  25  53 NW9       30.11R
AUGUSTA        CLOUDY    40  24  53 NW8       30.11R
WATERVILLE     CLOUDY    39  24  55 NW6       30.07R
BANGOR         MOCLDY    33  20  58 N9        30.10R
GREENVILLE       N/A     25  12  58 NW13G21   30.04R WCI  14
MILLINOCKET    CLOUDY    29  12  49 W13G20    30.10R WCI  19
HOULTON        FAIR      26   3  37 W7G17     30.05R
PRESQUE ISLE   CLOUDY    23   5  46 NW7       30.06R
FRENCHVILLE    FAIR      13   0  56 NW9       30.03R
CARIBOU        CLOUDY    21   3  45 NW10      30.04R WCI  10
$$

NHZ002-005-008-009-011-012-014-212200-
NEW HAMPSHIRE

CITY           SKY/WX    TMP DP  RH WIND       PRES   REMARKS
PORTSMOUTH     MOCLDY    45  28  51 W7        30.11R
ROCHESTER      FAIR      43  27  53 NW5       30.11R
NASHUA         FAIR      44  29  55 CALM      30.12R
MANCHESTER     MOCLDY    47  28  47 CALM      30.10R
CONCORD        FAIR      44  30  57 W5        30.11R
LACONIA        FAIR      42  27  55 N3        30.12
PLYMOUTH       FAIR      42  28  58 CALM      30.10R
BERLIN         CLOUDY    36  25  64 NW3       30.09R
WHITEFIELD     CLOUDY    37  26  64 NW3       30.10R
JAFFREY        FAIR      44  29  55 CALM      30.10R
KEENE          FAIR      45  29  53 NE3       30.12R
LEBANON        FAIR      38  31  76 CALM      30.10R
MT WASHINGTON  FOG       14  14 100 W54         N/A  VSB 1/16WCI -12
$$

VTZ005-007-008-212200-
VERMONT

CITY           SKY/WX    TMP DP  RH WIND       PRES   REMARKS
ST JOHNSBURY     N/A     39  27  62 MISG      30.09R
MONTPELIER     CLOUDY    37  29  72 CALM      30.13R
BURLINGTON     MOCLDY    37  26  64 NW5       30.13R
$$

MAZ007-012-024-CTZ003-RIZ002-NYZ038-NYZ072-212200-
SOUTHERN NEW ENGLAND AND NY

CITY           SKY/WX    TMP DP  RH WIND       PRES   REMARKS
BOSTON         CLOUDY    47  30  51 SW8       30.13R
WORCESTER      FAIR      42  27  55 W7        30.10R
NANTUCKET      FAIR      45  31  58 NE5       30.15R
PROVIDENCE     MOCLDY    47  31  53 S7        30.14R
HARTFORD       MOCLDY    48  31  51 SW5       30.13R
ALBANY         CLOUDY    41  28  60 N5        30.15R
NEW YORK CITY  MOCLDY    48  30  49 N3        30.13S
$$

ANZ081-ANZ082-ANZ150-NHZ014-MEZ023>029-212200-
COASTAL MARINE OBSERVATIONS

STATION/POSITION TIME  TEMP    WIND        PRES    WAVE
                       AIR SEA DIR/SP/G            HT/PER
                 (UTC) (F)     (DEG/KT/KT) (MB)    (FT/S)
MOUNT DESERT ROC 2100   40     250/ 13/ 15 1019.3R
MATINICUS ROCK   2000   39     260/  9/ 10 1018.3R
ISLE OF SHOALS   2000   45     330/  6/  7 1019.2R
JEFFREYS LEDGE   2036      43                N/A     2/ 8
GEORGES BANK BUO 1950   50 59              1016.7   10/10
$$

.............KEY..............
   WCI - WIND CHILL
   TC  - TEMPERATURE IN CELSIUS
   VSB - VISIBILITY IN MILES
   HX  - HEAT INDEX
   FAIR- INDICATES FEW OR NO CLOUDS BELOW 12,000 FT, WITH NO
         SIGNIFICANT WEATHER AND/OR OBSTRUCTIONS TO VISIBILITY.





USA.gov is the U.S. government's official web portal to all federal, state and local government web resources and services.